Back to catalog

STARLINK-35216

AliveCommunicationsVLEO
NORAD 65516·PAYLOAD·🇺🇸 United States

Launched Sep 5, 2025 from Cape Canaveral Space Force Station

Loading…

Next Passes (next 24 hours)

TLE

FreshSource: CelesTrak SupGP

Epoch: Sep 14, 2026, 15:34 UTC

1 65516C 25198AA  26257.64909722  .00001172  00000+0  34617-4 0  2571
2 65516  53.1578 110.9892 0001249  96.8097 245.0666 15.34396438    15

Track STARLINK-35216 in real time with AllMySat

Download on the App Store